Wind_Speed
52 49 45 45 46 47 48 53 59 64 64 62 59 55 51 48 47 46 45 44 39 32 30 20 31 21 17 17 14 18 20 27 31 32 32 31 31 30 30 23 22 22 22 19 22 24 19 18 20 17 17 14 11 10
32 37 39 36 33 27 26 27 31 35 43 58 61 59 55 50 47 46 45 44 44 29 31 27 29 21 19 14 13 16 20 21 25 27 27 27 28 25 22 22 22 22 19 14 16 17 22 20 18 19 21 17 10 10
36 34 34 33 29 25 22 21 23 27 28 35 53 60 57 53 47 45 42 43 50 37 30 30 33 26 21 15 15 15 15 19 23 24 22 22 24 23 24 24 22 22 23 24 29 26 19 17 19 17 17 17 15 19
40 40 34 36 30 26 27 24 21 19 25 30 42 58 57 52 46 43 41 42 40 29 24 30 29 24 19 18 18 18 20 20 22 24 23 22 26 24 22 22 25 25 27 29 28 26 21 18 17 18 23 18 20 13
30 36 38 35 31 26 26 24 21 17 18 22 37 56 56 48 44 41 40 47 38 30 26 30 31 27 24 24 20 20 24 22 28 30 28 26 25 24 21 22 22 24 27 30 25 26 21 16 20 19 11 13 16 16
7 9 16 23 26 25 23 23 21 18 17 21 39 53 50 43 42 40 37 43 33 33 28 27 24 26 27 23 22 24 28 28 25 31 31 29 26 27 27 22 18 22 26 30 27 28 24 15 9 9 16 19 19 18
27 5 5 11 19 25 23 24 21 21 22 26 42 46 42 40 38 36 39 35 21 27 32 26 25 22 22 22 25 29 29 28 27 29 30 31 27 31 25 14 11 23 31 34 28 26 27 29 27 23 20 20 20 21
32 30 12 12 14 18 22 24 25 29 34 39 41 40 40 40 39 37 33 27 23 29 30 26 25 22 21 23 27 29 30 32 31 29 25 25 33 31 15 7 19 29 31 29 25 25 21 30 31 27 25 25 23 23
29 33 44 48 46 43 44 46 48 48 48 46 43 40 39 37 41 37 26 28 26 29 31 23 18 18 22 26 27 28 30 30 28 22 22 27 29 23 13 20 23 26 24 21 19 21 22 25 29 30 29 27 26 26
35 40 44 46 49 51 53 54 52 52 49 42 38 29 29 31 35 27 25 31 29 22 18 16 15 19 22 20 21 21 18 17 16 13 20 28 17 13 20 22 20 20 15 17 17 20 20 17 19 22 25 25 25 29
39 35 33 38 39 39 41 45 44 39 39 37 37 34 28 22 21 27 30 26 20 18 14 16 17 17 16 15 16 17 11 8 7 9 16 11 8 18 19 18 16 17 18 20 22 21 21 19 17 20 17 25 29 28
37 36 35 37 37 38 37 35 34 38 40 38 37 37 35 33 31 28 23 20 19 14 16 16 16 15 14 15 19 18 11 7 12 6 10 6 12 11 11 9 9 12 16 18 19 21 22 22 23 26 28 31 27 25
28 30 31 32 30 31 35 38 33 30 29 29 26 23 24 23 22 21 18 13 13 15 16 18 17 18 18 21 22 23 19 17 11 18 12 9 10 13 11 9 11 13 16 16 18 19 21 23 25 25 24 24 26 27
23 22 21 20 20 20 23 24 26 27 25 23 17 15 14 14 13 13 16 17 17 20 18 17 15 16 17 19 20 26 23 22 19 8 9 8 11 11 13 14 13 16 17 19 20 19 18 23 27 28 29 28 22 21
17 20 21 16 14 15 14 15 18 18 20 21 18 17 16 15 18 20 22 21 19 17 16 14 10 5 7 9 17 22 23 21 21 9 12 14 15 15 16 17 18 18 20 21 21 19 17 15 15 17 19 18 18 16
9 9 12 13 11 6 8 13 14 14 16 16 15 16 17 20 22 23 23 22 19 21 19 14 14 15 15 18 14 20 23 16 21 19 18 19 19 19 19 18 19 20 21 21 19 17 18 15 13 11 12 12 12 16
2 3 2 1 4 3 1 6 6 7 8 9 12 16 19 21 22 21 21 18 25 22 20 12 11 12 17 20 15 11 10 15 20 24 22 21 21 21 20 21 21 21 21 20 17 17 16 16 15 12 13 15 17 18
9 10 10 11 8 12 7 9 9 9 10 11 12 13 14 17 18 16 15 19 24 26 19 8 14 18 14 10 12 14 15 14 15 17 18 19 20 21 22 22 21 20 19 16 14 14 16 17 17 18 19 20 21 23
7 7 7 5 8 10 11 10 9 10 10 8 8 11 11 14 15 13 18 20 23 27 31 23 21 18 15 16 16 16 16 17 17 17 19 20 20 20 19 19 19 17 16 15 15 15 15 15 16 18 19 19 20 20
9 10 12 10 9 10 9 9 10 9 6 5 5 7 8 9 11 15 19 24 26 31 32 29 24 22 17 18 16 15 15 17 19 21 22 22 21 21 19 17 17 17 16 14 15 16 16 16 17 17 17 18 19 21
5 4 1 2 3 5 7 11 9 7 7 6 6 8 9 11 10 11 17 19 20 23 25 25 26 24 16 13 12 13 14 17 19 21 20 20 20 19 18 16 17 16 15 16 19 16 15 16 17 18 19 20 21 22
5 5 5 5 5 6 9 13 14 12 13 13 12 10 11 15 15 13 15 17 19 20 24 22 21 21 18 16 15 13 11 12 14 17 18 19 19 19 18 16 16 15 14 18 19 17 17 19 20 21 22 22 23 25
7 6 6 7 8 10 12 14 16 19 21 20 20 19 18 17 17 19 18 18 18 21 24 23 22 21 20 19 18 17 16 15 15 15 17 20 20 20 20 18 17 17 14 18 26 27 28 27 24 24 25 26 27 28
10 9 9 10 10 12 13 16 18 20 22 24 26 29 27 26 25 24 24 24 24 24 24 25 25 25 26 26 24 24 24 23 22 21 20 20 22 22 21 20 19 21 23 27 29 29 27 26 27 28 28 29 30 31
12 13 12 11 10 11 14 17 19 20 22 23 25 26 28 34 36 34 33 32 32 31 31 32 33 32 31 31 31 30 30 30 31 29 27 25 24 24 23 21 21 21 22 23 24 25 26 28 30 31 32 32 33 33
17 15 15 16 16 16 17 17 17 17 19 23 26 27 29 30 31 34 36 40 42 43 42 40 39 39 40 39 39 38 38 37 36 34 32 29 27 25 25 25 25 25 25 26 27 28 29 30 31 32 33 33 33 34
20 19 19 19 19 19 20 22 24 25 26 25 24 23 23 26 29 33 34 35 36 38 40 42 43 45 46 45 44 42 40 38 37 34 32 30 28 28 28 28 29 29 29 30 30 30 31 32 33 33 33 34 35 35
26 25 24 24 23 23 21 22 23 24 24 26 27 28 28 26 25 25 26 29 35 37 37 36 35 36 36 36 36 34 33 32 31 31 31 30 30 30 31 32 33 34 33 32 31 32 32 33 34 34 35 36 36 36
28 28 28 29 30 30 29 26 24 25 26 25 25 26 27 28 29 28 26 25 25 27 34 38 37 35 34 33 32 32 32 32 32 32 33 33 33 34 35 36 35 34 33 32 33 33 34 35 35 35 35 34 34 34
31 30 29 30 32 33 33 32 29 28 26 27 28 27 26 27 31 31 29 28 26 24 23 26 33 37 35 33 31 30 31 31 32 33 33 34 35 35 34 35 35 35 35 34 34 34 34 33 33 33 33 32 31 31
37 34 31 31 31 32 35 36 35 32 29 27 29 28 28 29 28 29 31 32 31 27 23 22 22 27 32 34 33 31 30 29 30 31 32 33 34 35 35 35 35 35 34 33 32 32 31 31 30 30 30 31 33 34
41 39 38 35 33 32 32 34 36 35 33 30 29 27 27 28 28 27 30 31 31 31 26 23 23 22 21 24 28 30 31 31 31 30 30 31 32 32 32 31 31 30 29 29 28 28 29 30 30 31 32 33 33 32
43 43 42 40 38 35 34 32 35 36 33 32 30 30 28 26 27 27 28 30 29 28 29 26 23 23 22 22 21 22 24 26 27 28 29 29 29 29 29 28 28 27 27 28 30 30 30 31 31 31 29 28 28 29
Wind_Direction
280 276 271 267 263 260 258 255 251 247 243 238 233 230 228 227 227 226 221 218 214 217 228 218 206 220 232 240 248 250 242 243 238 239 240 242 245 248 243 238 244 247 248 250 253 262 273 265 257 270 269 293 295 266
282 277 269 259 255 250 250 251 247 240 239 233 227 223 223 222 220 221 217 214 205 220 217 233 210 209 227 230 239 237 238 238 243 241 240 245 247 248 248 242 248 245 244 233 251 250 274 262 260 261 260 269 248 268
278 275 264 251 240 241 237 239 238 236 231 226 218 214 214 216 214 214 210 211 206 219 225 222 206 215 221 238 256 273 260 233 238 241 240 241 246 247 245 249 233 225 225 228 242 255 260 268 263 262 263 256 263 272
276 271 265 242 236 232 230 229 231 236 236 225 209 202 204 208 206 206 204 202 192 192 205 204 195 210 228 240 250 271 271 245 237 238 233 233 243 245 243 243 230 230 229 238 244 253 249 285 267 250 266 241 268 256
278 265 253 238 227 219 219 221 225 232 223 210 198 193 197 198 198 198 198 194 189 191 207 210 215 223 227 240 255 272 268 258 245 240 241 239 245 252 247 241 230 232 243 245 245 246 244 273 269 267 254 241 257 266
313 262 223 214 208 209 222 224 218 220 209 197 185 184 187 187 189 189 190 196 185 193 208 212 220 223 223 241 254 265 270 271 257 247 241 242 249 256 251 245 228 234 248 249 245 245 235 238 246 262 251 258 265 269
36 21 198 201 213 222 214 201 200 192 177 169 171 174 174 177 177 181 185 176 184 190 204 214 212 230 239 245 257 261 265 274 266 256 246 242 243 251 257 244 226 234 241 244 245 245 243 252 254 260 265 272 267 272
43 43 81 159 164 172 177 174 163 156 142 148 152 156 162 167 171 172 169 182 196 194 193 207 227 231 243 253 260 264 269 270 267 265 255 246 245 252 250 248 236 240 244 246 244 251 258 251 248 249 264 271 266 267
62 69 82 92 104 115 121 123 122 124 130 134 140 147 157 166 169 165 171 178 177 193 205 210 222 240 259 262 262 262 264 265 269 270 250 243 241 250 252 240 249 248 244 250 256 262 268 260 251 255 262 272 267 271
81 87 81 79 89 105 112 116 120 122 122 125 126 140 155 161 166 164 162 175 184 184 199 217 249 257 251 253 255 248 250 260 271 253 237 241 243 227 241 244 249 245 233 249 262 275 272 259 245 253 270 273 276 277
78 79 84 88 89 91 100 113 118 127 134 136 144 152 152 158 176 182 177 181 191 206 222 247 264 244 248 249 235 234 242 266 251 223 243 241 208 226 236 242 239 233 246 260 276 269 263 259 246 243 257 249 271 279
72 89 85 86 93 105 112 124 128 128 125 131 136 142 150 157 164 172 182 197 209 226 240 246 238 236 246 251 232 226 222 259 277 256 257 208 219 228 236 237 244 253 264 274 275 269 260 257 251 250 253 258 265 268
73 75 80 85 95 96 106 115 118 123 130 136 143 149 159 168 179 192 202 210 224 216 214 226 238 250 255 257 238 219 231 229 231 254 283 209 214 232 237 249 259 272 279 287 285 275 267 257 255 254 258 269 264 261
69 76 90 92 90 96 117 130 139 146 155 164 164 166 185 197 211 215 208 219 228 222 220 233 251 256 251 251 235 224 234 235 235 258 251 231 232 251 261 268 277 287 292 297 299 286 274 257 260 267 269 272 261 259
78 83 79 85 116 138 143 149 156 162 168 178 187 198 206 209 208 203 205 209 208 215 227 207 185 222 273 284 236 230 238 239 227 233 245 259 262 266 271 271 272 281 291 294 296 281 266 268 276 269 257 254 254 250
73 87 72 71 62 79 152 168 179 189 197 201 211 211 208 199 199 197 199 205 215 193 185 198 225 235 233 243 268 243 243 248 234 239 245 256 270 273 273 274 275 281 286 289 286 274 261 259 266 281 248 237 250 259
294 260 249 63 33 0 357 213 206 207 207 196 199 201 202 202 204 207 211 216 190 188 180 197 215 229 253 244 262 245 243 234 236 240 252 263 270 274 277 279 280 283 283 284 278 267 269 257 252 257 263 263 261 259
294 288 274 264 269 290 205 198 207 212 215 215 214 212 212 212 208 207 203 193 196 199 194 198 228 229 230 246 252 253 255 257 257 255 262 270 276 277 275 274 276 276 275 271 270 265 264 259 256 255 254 257 259 262
40 329 280 222 198 198 175 180 197 187 179 195 208 213 212 204 208 212 202 196 209 215 218 225 226 227 239 245 260 269 259 259 260 265 271 275 280 283 282 277 274 267 261 268 271 272 272 270 265 266 270 273 275 276
48 61 79 102 139 156 170 181 182 193 205 213 233 232 218 212 227 227 219 207 216 222 230 236 234 229 240 247 257 258 256 256 261 268 273 277 280 280 278 277 273 266 264 263 268 272 270 268 269 270 272 274 275 277
20 35 89 145 183 195 183 183 192 210 217 240 254 239 230 223 227 214 216 225 227 229 230 233 235 236 231 231 243 253 259 265 270 275 279 280 280 277 274 274 272 266 262 263 270 269 265 264 267 270 274 278 280 282
343 304 291 276 257 239 220 213 217 220 227 236 242 241 237 235 240 228 225 226 218 216 205 220 229 222 230 242 249 256 265 276 281 282 282 281 277 274 271 270 270 261 258 262 263 267 284 280 277 278 280 280 281 283
334 327 309 289 273 259 253 248 246 245 243 241 245 244 243 242 241 237 234 236 232 224 226 231 230 236 242 250 257 261 268 275 284 292 290 283 279 276 271 268 265 259 254 264 262 269 277 278 277 278 280 282 283 284
351 321 298 288 279 273 268 266 262 260 259 257 253 248 248 246 243 243 244 245 245 245 245 245 245 249 253 257 262 269 275 279 282 282 280 280 278 275 271 265 256 249 246 247 253 262 269 274 278 280 282 283 284 286
332 327 330 334 325 301 285 275 269 266 264 263 261 259 255 251 250 251 252 251 251 250 249 250 249 250 253 258 263 268 273 278 280 278 274 270 268 269 268 263 258 257 258 261 265 270 275 279 282 284 285 286 288 288
343 331 317 312 303 297 293 292 290 287 284 277 271 265 263 259 256 253 252 256 258 257 256 256 255 255 256 259 264 268 273 275 275 270 264 260 260 261 262 264 266 268 270 273 276 278 279 281 283 285 285 286 286 287
359 350 339 332 323 314 303 293 286 283 279 277 277 280 278 273 266 261 258 256 254 254 255 256 257 258 260 263 265 265 264 264 262 258 254 250 252 256 260 263 266 269 273 276 278 278 278 280 281 282 283 285 286 288
3 360 353 345 339 330 321 311 305 298 292 284 279 276 274 274 275 274 271 264 257 254 255 256 257 257 256 255 255 256 257 256 255 254 251 252 255 258 260 263 268 271 274 275 275 276 277 277 279 281 283 285 287 289
3 2 359 354 350 346 340 333 321 307 299 294 287 281 275 271 271 272 274 274 274 266 254 249 250 252 253 253 253 251 249 249 249 250 251 252 254 257 261 264 266 268 270 272 273 274 276 279 281 283 284 286 287 288
4 2 360 358 355 353 349 344 335 322 309 297 288 282 280 276 270 269 268 268 268 271 274 266 253 247 247 249 251 251 250 248 248 249 249 251 254 256 258 260 265 269 271 273 274 275 277 279 281 283 284 286 287 287
354 357 358 357 357 354 351 347 344 337 324 309 298 291 282 274 271 272 267 264 264 264 266 270 270 259 250 247 247 249 250 251 252 252 252 254 255 257 259 260 263 265 267 270 272 275 277 279 280 282 283 283 284 285
344 347 348 351 352 352 353 347 346 342 333 323 313 308 296 286 276 268 264 265 263 257 258 260 264 265 260 253 250 250 251 253 254 255 256 257 257 258 259 261 263 264 266 269 271 273 275 276 277 279 281 284 287 289
339 339 342 343 345 350 352 349 344 344 336 329 323 317 312 304 290 281 272 264 263 260 252 252 258 259 258 256 255 253 253 254 255 255 254 255 256 257 258 259 262 264 265 267 269 272 275 278 282 284 285 287 290 293
Height
5371 5369 5368 5368 5368 5369 5371 5374 5379 5386 5395 5406 5417 5427 5436 5444 5452 5460 5470 5478 5486 5497 5504 5508 5515 5522 5526 5527 5528 5529 5529 5530 5533 5534 5537 5539 5541 5543 5543 5549 5549 5551 5552 5555 5557 5557 5558 5558 5559 5561 5561 5560 5559 5559
5357 5354 5353 5354 5355 5357 5360 5361 5363 5367 5372 5382 5396 5410 5423 5434 5443 5452 5462 5471 5480 5489 5497 5503 5508 5516 5520 5521 5523 5523 5525 5526 5526 5527 5530 5532 5534 5536 5538 5541 5543 5545 5548 5550 5552 5552 5551 5553 5554 5554 5555 5556 5555 5555
5345 5343 5341 5342 5345 5348 5351 5354 5356 5359 5362 5366 5377 5394 5410 5423 5435 5445 5456 5464 5472 5482 5491 5497 5505 5511 5514 5516 5519 5519 5519 5520 5520 5522 5524 5525 5527 5530 5532 5535 5538 5539 5541 5542 5543 5546 5546 5546 5546 5549 5550 5550 5550 5550
5331 5329 5329 5331 5335 5339 5343 5347 5350 5353 5355 5358 5365 5382 5400 5414 5428 5439 5450 5460 5468 5479 5487 5493 5499 5504 5509 5512 5513 5515 5514 5515 5516 5517 5519 5521 5522 5524 5526 5528 5530 5534 5534 5535 5537 5538 5541 5542 5541 5542 5542 5545 5545 5544
5316 5313 5315 5318 5325 5330 5335 5340 5345 5348 5350 5353 5360 5376 5393 5410 5423 5435 5445 5455 5464 5474 5483 5490 5495 5500 5504 5506 5508 5509 5508 5509 5510 5511 5513 5516 5517 5519 5520 5520 5525 5528 5528 5528 5532 5533 5536 5538 5536 5536 5538 5539 5540 5540
5310 5306 5305 5309 5316 5323 5330 5335 5340 5344 5348 5352 5360 5375 5393 5409 5421 5433 5443 5452 5461 5470 5480 5486 5491 5496 5499 5502 5502 5503 5502 5501 5503 5504 5507 5509 5513 5512 5511 5516 5521 5522 5522 5522 5525 5527 5531 5531 5532 5532 5534 5535 5535 5535
5314 5306 5304 5305 5310 5317 5324 5330 5336 5342 5347 5354 5366 5382 5398 5411 5424 5434 5445 5456 5463 5469 5477 5484 5488 5492 5495 5496 5497 5497 5496 5495 5496 5497 5500 5503 5505 5502 5507 5512 5515 5514 5512 5512 5518 5521 5524 5524 5525 5527 5528 5529 5530 5530
5325 5314 5305 5304 5308 5314 5321 5328 5335 5343 5351 5364 5377 5391 5403 5414 5425 5435 5447 5456 5462 5469 5475 5481 5485 5488 5489 5490 5490 5490 5489 5488 5488 5488 5493 5495 5496 5497 5504 5507 5506 5503 5505 5508 5512 5514 5518 5517 5519 5521 5522 5523 5523 5523
5339 5332 5324 5319 5318 5322 5327 5334 5343 5353 5364 5376 5387 5399 5410 5419 5429 5437 5447 5455 5462 5469 5474 5479 5481 5483 5483 5484 5483 5482 5481 5481 5481 5484 5486 5487 5488 5494 5500 5498 5498 5498 5502 5504 5506 5507 5508 5507 5508 5512 5514 5515 5515 5515
5354 5350 5347 5346 5346 5346 5348 5354 5361 5369 5378 5388 5397 5410 5417 5425 5435 5442 5450 5457 5463 5467 5471 5474 5475 5476 5478 5476 5476 5477 5476 5476 5477 5480 5478 5479 5486 5490 5490 5491 5493 5495 5498 5499 5500 5500 5501 5501 5501 5503 5505 5505 5506 5506
5370 5368 5366 5365 5365 5367 5371 5376 5381 5387 5391 5398 5406 5415 5423 5430 5438 5446 5452 5458 5462 5465 5468 5469 5470 5470 5470 5471 5472 5473 5474 5474 5474 5476 5475 5479 5483 5483 5486 5487 5488 5490 5492 5493 5494 5494 5494 5495 5496 5497 5498 5498 5498 5499
5388 5386 5384 5384 5384 5384 5387 5390 5394 5399 5404 5412 5419 5425 5432 5438 5443 5449 5452 5457 5459 5461 5463 5464 5465 5466 5466 5467 5469 5471 5471 5472 5473 5475 5475 5476 5478 5480 5482 5483 5484 5486 5488 5487 5487 5487 5487 5487 5488 5489 5490 5490 5490 5491
5400 5399 5399 5399 5400 5401 5404 5406 5410 5414 5419 5424 5429 5435 5438 5442 5445 5449 5452 5455 5457 5457 5458 5459 5461 5462 5463 5463 5464 5467 5467 5470 5469 5472 5472 5474 5477 5478 5478 5480 5481 5482 5482 5482 5481 5480 5480 5480 5481 5482 5482 5482 5482 5483
5410 5409 5409 5410 5411 5413 5416 5419 5421 5425 5428 5431 5433 5435 5438 5441 5444 5447 5449 5450 5452 5453 5454 5456 5457 5458 5458 5458 5459 5462 5465 5466 5466 5469 5470 5471 5473 5474 5475 5476 5477 5477 5477 5476 5474 5473 5472 5473 5473 5473 5473 5473 5474 5475
5418 5417 5417 5417 5418 5419 5421 5423 5426 5428 5430 5433 5435 5436 5438 5440 5442 5443 5445 5447 5448 5450 5452 5453 5455 5455 5455 5456 5458 5460 5462 5462 5465 5467 5467 5468 5470 5471 5471 5472 5472 5472 5471 5470 5468 5467 5467 5467 5466 5465 5466 5467 5468 5469
5421 5421 5420 5420 5420 5421 5422 5423 5425 5427 5428 5430 5431 5432 5434 5436 5437 5440 5441 5443 5445 5446 5449 5450 5452 5453 5452 5453 5455 5456 5458 5461 5464 5464 5464 5464 5465 5466 5466 5466 5466 5466 5465 5465 5463 5462 5462 5462 5462 5461 5461 5462 5464 5465
5421 5421 5421 5422 5422 5423 5422 5423 5424 5424 5425 5426 5427 5429 5430 5432 5434 5436 5438 5440 5442 5445 5446 5448 5450 5451 5450 5451 5453 5454 5455 5456 5457 5459 5460 5461 5461 5460 5460 5460 5460 5459 5458 5458 5457 5457 5457 5457 5457 5457 5458 5459 5460 5460
5418 5419 5419 5419 5420 5421 5421 5422 5423 5424 5424 5425 5427 5428 5429 5430 5432 5433 5435 5437 5440 5442 5443 5445 5447 5447 5448 5449 5449 5451 5451 5452 5453 5454 5454 5455 5454 5454 5453 5453 5453 5452 5452 5452 5451 5451 5451 5451 5452 5452 5453 5453 5454 5454
5416 5415 5413 5413 5415 5418 5419 5421 5422 5423 5424 5425 5425 5426 5427 5428 5430 5431 5433 5435 5437 5438 5440 5441 5442 5444 5445 5446 5446 5446 5447 5448 5448 5449 5449 5449 5449 5448 5447 5446 5446 5446 5446 5446 5446 5446 5446 5446 5446 5446 5446 5447 5447 5447
5419 5417 5416 5416 5417 5419 5420 5421 5422 5422 5423 5424 5424 5425 5426 5426 5427 5428 5429 5432 5433 5434 5435 5437 5440 5441 5442 5443 5443 5443 5443 5444 5444 5444 5444 5443 5443 5442 5441 5441 5440 5440 5440 5440 5440 5441 5441 5441 5441 5441 5440 5440 5440 5440
5421 5421 5420 5419 5419 5419 5420 5420 5421 5421 5422 5422 5423 5423 5424 5424 5425 5425 5427 5428 5429 5430 5431 5434 5435 5437 5438 5438 5438 5438 5438 5438 5438 5438 5437 5437 5436 5436 5435 5434 5435 5435 5435 5435 5435 5435 5435 5435 5435 5435 5434 5434 5433 5433
5421 5420 5420 5419 5419 5418 5418 5419 5419 5419 5420 5420 5420 5421 5421 5422 5422 5423 5423 5424 5424 5425 5427 5428 5430 5431 5432 5433 5433 5433 5433 5432 5432 5432 5431 5430 5430 5429 5429 5429 5429 5429 5430 5430 5429 5429 5429 5429 5429 5428 5427 5426 5425 5424
5419 5419 5418 5417 5417 5416 5417 5416 5416 5416 5416 5416 5416 5416 5417 5417 5417 5418 5419 5419 5420 5421 5422 5423 5424 5425 5426 5427 5427 5427 5427 5426 5426 5425 5424 5424 5423 5423 5423 5423 5423 5423 5423 5424 5423 5423 5423 5423 5422 5421 5420 5418 5417 5415
5418 5416 5415 5414 5413 5413 5412 5411 5411 5410 5410 5409 5410 5410 5410 5411 5412 5412 5413 5413 5413 5414 5415 5416 5417 5418 5419 5419 5419 5419 5419 5419 5418 5418 5417 5417 5417 5416 5416 5416 5416 5416 5417 5417 5417 5416 5416 5415 5414 5413 5411 5410 5408 5407
5417 5416 5414 5411 5409 5408 5406 5405 5404 5403 5402 5402 5401 5401 5401 5402 5402 5403 5404 5404 5404 5406 5406 5407 5408 5409 5409 5409 5409 5410 5410 5410 5410 5410 5409 5409 5408 5409 5409 5409 5409 5409 5409 5409 5408 5407 5407 5406 5405 5403 5402 5400 5398 5397
5414 5412 5410 5407 5406 5404 5401 5400 5398 5396 5394 5392 5391 5391 5390 5390 5391 5391 5392 5391 5392 5393 5394 5395 5396 5397 5397 5398 5398 5399 5399 5399 5399 5399 5399 5399 5400 5400 5400 5401 5401 5401 5400 5400 5399 5398 5397 5396 5395 5393 5391 5390 5388 5386
5413 5410 5406 5403 5400 5397 5394 5392 5390 5388 5386 5384 5383 5381 5379 5378 5378 5378 5378 5378 5378 5379 5379 5380 5381 5382 5384 5384 5385 5385 5386 5386 5387 5387 5388 5389 5389 5390 5391 5391 5391 5391 5391 5390 5389 5388 5387 5386 5385 5383 5382 5380 5378 5376
5412 5408 5403 5400 5395 5391 5388 5384 5381 5378 5376 5374 5373 5371 5370 5369 5368 5366 5365 5365 5365 5366 5366 5367 5368 5369 5370 5371 5372 5373 5374 5374 5375 5376 5377 5379 5379 5380 5380 5380 5380 5380 5380 5380 5379 5378 5377 5376 5374 5373 5371 5369 5367 5365
5412 5407 5402 5397 5391 5386 5382 5378 5374 5369 5366 5364 5362 5360 5360 5358 5357 5356 5356 5354 5353 5352 5352 5354 5355 5356 5357 5359 5360 5361 5362 5363 5364 5365 5366 5368 5368 5369 5369 5369 5370 5370 5369 5369 5368 5367 5366 5364 5363 5361 5360 5358 5356 5353
5410 5405 5400 5394 5388 5383 5377 5371 5366 5361 5357 5353 5350 5349 5348 5347 5344 5344 5344 5343 5343 5343 5342 5341 5341 5343 5345 5346 5348 5349 5350 5352 5353 5354 5355 5356 5356 5357 5358 5358 5358 5358 5358 5357 5356 5355 5354 5353 5352 5350 5348 5347 5345 5343
5406 5401 5396 5390 5385 5379 5372 5366 5360 5353 5348 5344 5339 5337 5336 5335 5334 5333 5332 5331 5331 5332 5333 5332 5331 5331 5333 5335 5336 5338 5339 5341 5342 5343 5344 5345 5345 5346 5347 5347 5347 5347 5346 5346 5345 5344 5343 5342 5341 5339 5338 5336 5334 5332
5400 5396 5391 5385 5380 5374 5368 5362 5355 5348 5341 5335 5330 5326 5324 5322 5321 5322 5320 5318 5319 5321 5323 5323 5323 5323 5323 5324 5325 5327 5329 5330 5331 5332 5332 5333 5334 5335 5335 5336 5336 5336 5335 5335 5334 5334 5333 5332 5331 5329 5328 5326 5323 5321
5395 5389 5384 5379 5373 5368 5363 5357 5350 5344 5335 5328 5323 5318 5315 5312 5310 5309 5308 5307 5308 5309 5311 5313 5314 5314 5315 5316 5317 5318 5318 5319 5320 5321 5321 5322 5323 5324 5325 5325 5326 5326 5325 5325 5325 5324 5323 5322 5321 5319 5317 5315 5313 5311